Volver al catálogo

DELTA 1 DEB

ActivoSSO
NORAD 13574·DEBRIS·🇺🇸 United States

Lanzado Mar 5, 1978 desde Vandenberg Space Force Base

Loading…

Próximos Pases (próximas 24 horas)

TLE

ActualizadoSource: Space-Track

Época: Sep 14, 2026, 11:26 UTC

1 13574U 78026FM  26257.47669626  .00000363  00000-0  19845-3 0  9993
2 13574  99.0506 251.1448 0036399 251.0342 262.6497 14.18096603319224

Sigue DELTA 1 DEB en tiempo real con AllMySat

Download on the App Store